Location: Unspecified
(50.0000°N, 15.0000°E)
Time: 05:12:14
(UTC+01:00)

ISS - Visible Passes

Search period start: 30 November 2021 00:00
Search period end: 10 December 2021 00:00
Orbit: 417 x 423 km, 51.6° (Epoch: 29 November)

Date Brightness Start Highest point End Pass type
(mag) Time Alt. Az. Time Alt. Az. Time Alt. Az.
30 Nov -3.8 17:55:48 10° WNW 17:59:13 70° N 17:59:39 59° ENE visible
01 Dec -3.6 17:08:36 10° W 17:11:59 64° N 17:14:25 17° E visible
01 Dec -1.8 18:45:29 10° WNW 18:47:25 30° W 18:47:25 30° W visible
02 Dec -3.8 17:58:17 10° WNW 18:01:42 83° SSW 18:02:15 60° ESE visible
03 Dec -3.8 17:11:05 10° WNW 17:14:30 81° NNE 17:17:09 16° E visible
03 Dec -1.6 18:48:04 10° W 18:50:09 26° WSW 18:50:09 26° WSW visible
04 Dec -2.8 18:00:45 10° WNW 18:04:01 45° SSW 18:05:12 31° SSE visible
05 Dec -3.3 17:13:29 10° WNW 17:16:51 62° SSW 17:20:13 10° ESE visible
05 Dec -1.0 18:51:08 10° W 18:53:11 15° SW 18:53:25 15° SW visible
06 Dec -1.4 18:03:26 10° W 18:06:09 22° SW 18:08:50 10° SSE visible
07 Dec -1.9 17:15:58 10° W 17:19:02 31° SSW 17:22:04 10° SSE visible
09 Dec -0.6 17:18:59 10° WSW 17:21:00 15° SW 17:23:00 10° S visible
